Погода в Джексонвилле

США     39°43′23″N   90°13′44″W
темп.,
°C
ветер,
м/с
пор.,
м/с
влажн.,
%
обл.,
%
осадки,
мм/ч
давл.,
гПа
погр.,
м
19 апреля, пн
пн1901:00+7зюз36830 0.0 1014110
04:00+6зюз39854 0.0 1013168
07:00+6зюз411830 0.0 1014227
10:00+13з695798 0.0 1013721
13:00+15зсз685873 0.0 10131563
16:00+9ссз7872100 0.0 1015730
19:00+6ссз7976100 0.0 1017773
22:00+4ссз5975100 0.0 1019601
20 апреля, вт
вт2001:00+2ссз3784100 0.0 1019367
04:00+4с3575100 0.0 1019341
07:00+3с4782100 0.3 1020689
10:00+1с5898100 2.6 1021465
13:00+1с5799100 7.2 1020495
16:00+1с4799100 2.7 1020574
19:00+2ссз479035 3.1 1020532
22:00−2зсз22965 0.0 102122
21 апреля, ср
ср2101:00−2з36955 0.0 1021104
04:00−2з38932 0.0 1022142
07:00−2зсз37895 0.0 1023145
10:00+4зсз456677 0.0 1024498
13:00+8з344676 0.0 10231832
16:00+8юз4451100 0.0 10211773
19:00+4ююв4591100 0.5 1020465
22:00+3ссз1296100 1.8 1021128
22 апреля, чт
чт2201:00+2сз359722 2.9 1023163
04:00−1з35960 0.0 102393
07:000зсз24872 0.0 1025103
10:00+6з35635 0.0 1025813
13:00+10зсз464579 0.0 10241956
16:00+12з454471 0.0 10221972
19:00+9юз34625 0.0 102271
22:00+6ююз336786 0.0 102225
23 апреля, пт
пт2301:00+5ю3574100 0.0 102285
04:00+4ююз387575 0.0 1022154
07:00+5ююз387991 0.0 1021187
10:00+6ю4981100 0.0 1021455
13:00+7ююв51090100 1.0 1019457
16:00+8ю4888100 0.4 1017573
19:00+7юв41095100 2.6 1015361
22:00+8юв51296100 0.8 1015423